Regional Weather Roundup
Issued by NWS Charleston, WV

Home | Current Version | Previous Version | Graphics & Text | Print | Product List | Glossary On
Versions: 1 2 3 4 5 6 7 8 9 10 11 12 13 14 15 16 17 18 19 20 21 22 23 24 25 26 27 28 29 30 31 32 33 34 35 36 37 38 39 40 41 42 43 44 45 46 47 48 49 50
000
ASUS41 KRLX 060010
RWRRLX
West Virginia Regional Weather Roundup
National Weather Service Charleston WV
700 PM EST FRI FEB 05 2016

Note: "fair" indicates few or no clouds below 12,000 feet with no
significant weather and/or obstructions to visibility.

WVZ003-060100-
Northern Panhandle of West Virginia

CITY           SKY/WX    TMP DP  RH WIND       PRES   REMARKS
WHEELING         N/A     32  15  49 SW3       30.37R
$$

WVZ009-060100-
Northwest West Virginia

CITY           SKY/WX    TMP DP  RH WIND       PRES   REMARKS
PARKERSBURG      N/A     33  16  49 S5        30.42R
$$

WVZ006-060100-
Western West Virginia

CITY           SKY/WX    TMP DP  RH WIND       PRES   REMARKS
HUNTINGTON       N/A     38  13  35 SE3       30.39S
$$

WVZ015-060100-
West Central West Virginia

CITY           SKY/WX    TMP DP  RH WIND       PRES   REMARKS
CHARLESTON       N/A     34  16  47 CALM      30.40R
$$

WVZ022-031-060100-
North Central West Virginia

CITY           SKY/WX    TMP DP  RH WIND       PRES   REMARKS
CLARKSBURG       N/A     33  15  47 CALM      30.38R
MORGANTOWN       N/A     33  13  43 CALM      30.38R
$$

WVZ025-035-042-045-060100-
Southern West Virginia

CITY           SKY/WX    TMP DP  RH WIND       PRES   REMARKS
BECKLEY          N/A     29  13  51 CALM      30.34R
LOGAN            N/A     34  12  40 CALM      30.37S
BLUEFIELD        N/A     29   9  43 NW5       30.32R
LEWISBURG        N/A     33  15  48 CALM      30.34R
$$

WVZ047-060100-
Northern Mountains of West Virginia

CITY           SKY/WX    TMP DP  RH WIND       PRES   REMARKS
ELKINS           N/A     27  15  61 CALM      30.35R
$$

WVZ052-060100-
Eastern Panhandle of West Virginia

CITY           SKY/WX    TMP DP  RH WIND       PRES   REMARKS
MARTINSBURG      N/A     32  15  49 CALM      30.37R
PETERSBURG       N/A     34  16  47 CALM      30.38R
$$



USA.gov is the U.S. government's official web portal to all federal, state and local government web resources and services.